Location: Amsterdam
(30.7274°N, 84.4357°W)
Time: 19:42:26
(UTC+00:00)

Tiros 1 - Pass Details

Date: 25 February 2026
Orbit: 618 x 649 km, 48.4° (Epoch: 10 March)

Event Time Altitude Azimuth Distance (km) Brightness Sun altitude
Rises 12:16:36 0° 276° (W) 2,928 9.8 0.9°
Reaches altitude 10° 12:19:46 10° 299° (WNW) 2,014 9.1 1.6°
Maximum altitude 12:22:38 16° 337° (NNW) 1,650 9.0 2.2°
Drops below altitude 10° 12:25:29 10° 15° (NNE) 2,004 9.8 2.8°
Sets 12:28:38 0° 38° (NE) 2,906 10.9 3.4°
